{"data":{"norad_id":65947,"intl_designator":"2025-228A","name":"KUIPER-00101","alt_names":[],"object_type":"PAYLOAD","status":"ACTIVE","operator":null,"country":"US","launch_date":"2025-10-14","launch_site_code":"AFETR","launch_vehicle":null,"mission":null,"orbit_class":"UNKNOWN","rcs_meters":null,"size_class":null,"mass_kg":null,"dimensions":null,"purposes":[],"wikipedia_slug":null,"has_3d_model":false,"image_url":null,"decayed_at":null,"tle_current":{"epoch":"2026-09-20T07:35:15.462816Z","epoch_age_seconds":159535,"freshness":"FRESH","line1":"1 65947U 25228A   26263.31615119 -.00010988  00000+0 -14135-2 0  9999","line2":"2 65947  51.9017 219.9026 0000398  58.8845 301.2157 14.79969621 52058","mean_motion":14.79969621,"eccentricity":3.98e-5,"inclination_deg":51.9017,"raan_deg":219.9026,"arg_perigee_deg":58.8845,"mean_anomaly_deg":301.2157,"bstar":-0.0014135,"rev_number":5205,"period_min":97.299294496802,"perigee_km":629.14112736677,"apogee_km":629.69892890621,"semimajor_km":7007.5570281365,"source":"CELESTRAK","updated_at":"2026-09-21T09:00:15.653626Z"}}}